Simultaneous Nadir Overpasses (SNOs) Predictions

Prediction of SNOs between LANDSAT-8 and METOP-B Satellite Orbit:

Table of predicted SNOs for the next 14.0 days since TLE Epoch: 12/7/2014
Index Date (LANDSAT-8) Time (LANDSAT-8) Lat,Lon (LANDSAT-8) SZA (LANDSAT-8 ) Date (METOP-B) Time (METOP-B) Lat,Lon (METOP-B) SZA (METOP-B ) Distance(km) Time Diff (sec)
1 12/09/2014 19:09:57 81.04, -68.87 105.90 12/09/2014 19:09:46 81.04, -69.04 105.88 3.00 11
2 12/09/2014 19:59:22 -81.09, 99.41 74.00 12/09/2014 20:00:24 -81.09, 99.59 73.96 3.09 62
3 12/12/2014 13:54:42 -81.04,-170.11 73.91 12/12/2014 13:53:28 -81.04,-170.06 73.94 0.90 74
4 12/12/2014 14:44:08 81.04, -2.41 106.11 12/12/2014 14:44:07 81.05, -2.36 106.12 1.10 1
5 12/12/2014 15:33:33 -81.09, 165.88 73.80 12/12/2014 15:34:46 -81.09, 165.93 73.77 0.84 73
6
